Lake Charles, LA

9:06 AM CDT on September 28, 2016 (GMT -0500)
Chennault International

Weather History for KCWF - May, 2013

Change the Weather History Date:

Wednesday, May 15, 2013

  Actual Average Record
Temperature  
Mean Temperature 70 °F -  
Max Temperature 80 °F 83 °F 87 °F (2001)
Min Temperature 61 °F 68 °F 46 °F (2014)
Cooling Degree Days 6    
Growing Degree Days 20 (Base 50)    
Moisture  
Dew Point 62 °F    
Average Humidity 84    
Maximum Humidity 95    
Minimum Humidity 51    
Precipitation  
Precipitation 0.00 in - - ()
Sea Level Pressure  
Sea Level Pressure 30.12 in    
Wind  
Wind Speed 5 mph (SSE)    
Max Wind Speed 14 mph    
Max Gust Speed 21 mph    
Visibility 9 miles    
Events      
Averages and records for this station are not official NWS values.
T = Trace of Precipitation, MM = Missing Value Source: NWS Daily Summary

Daily Weather History Graph

Daily Weather History Graph

Search for Another Location

Airport or City:

Trip Planner

Search our weather history database for the weather conditions in past years. The results will help you decide how hot, cold, wet, or windy it might be!

Date:

Astronomy

May. 15, 2013 Rise Set
Actual Time 6:18 AM CDT 7:59 PM CDT
Civil Twilight 5:52 AM CDT 8:25 PM CDT
Nautical Twilight 5:20 AM CDT 8:57 PM CDT
Astronomical Twilight 4:47 AM CDT 9:30 PM CDT
Moon 10:51 AM CDT (5/15) No Moon Set
Length of Visible Light 14h 33m
Length of Day
13h 41m
Waxing Crescent, 27% of the Moon is Illuminated
May 15
Waxing Crescent
May 17
First Quarter
May 24
Full
May 31
Last Quarter
Jun 8
New

Hourly Weather History & Observations

Time (CDT) Temp. Heat Index Dew Point Humidity Pressure Visibility Wind Dir Wind Speed Gust Speed Precip Events Conditions
12:15 AM 63.0 °F - 60.4 °F 91% 30.18 in 10.0 mi SSE 4.6 mph - N/A   Clear
12:35 AM 62.2 °F - 59.9 °F 92% 30.18 in 10.0 mi SSE 4.6 mph - N/A   Clear
12:55 AM 63.1 °F - 60.8 °F 92% 30.18 in 10.0 mi SSE 4.6 mph - N/A   Clear
1:35 AM 62.6 °F - 60.3 °F 92% 30.18 in 10.0 mi SSE 4.6 mph - N/A   Clear
1:55 AM 63.0 °F - 61.0 °F 93% 30.17 in 10.0 mi SE 3.5 mph - N/A   Clear
2:15 AM 63.5 °F - 61.0 °F 91% 30.17 in 10.0 mi SSE 3.5 mph - N/A   Clear
2:35 AM 63.3 °F - 61.0 °F 92% 30.17 in 10.0 mi Calm Calm - N/A   Clear
2:55 AM 63.5 °F - 61.2 °F 92% 30.17 in 10.0 mi Calm Calm - N/A   Clear
3:15 AM 62.8 °F - 60.4 °F 92% 30.17 in 10.0 mi Calm Calm - N/A   Clear
3:35 AM 62.6 °F - 60.1 °F 91% 30.16 in 10.0 mi Calm Calm - N/A   Clear
3:55 AM 62.1 °F - 60.3 °F 94% 30.15 in 7.0 mi ESE 3.5 mph - N/A   Clear
4:15 AM 61.0 °F - 59.2 °F 94% 30.15 in 5.0 mi SE 3.5 mph - N/A   Clear
4:35 AM 61.9 °F - 60.4 °F 95% 30.15 in 5.0 mi Calm Calm - N/A   Clear
4:55 AM 62.4 °F - 60.8 °F 94% 30.15 in 7.0 mi Calm Calm - N/A   Clear
5:15 AM 62.6 °F - 61.0 °F 94% 30.15 in 7.0 mi Calm Calm - N/A   Clear
5:35 AM 63.0 °F - 61.2 °F 94% 30.15 in 5.0 mi Calm Calm - N/A   Clear
5:55 AM 62.8 °F - 61.0 °F 94% 30.15 in 5.0 mi Calm Calm - N/A   Clear
6:00 AM 62.6 °F - 60.8 °F 94% 30.15 in 7.0 mi Calm Calm - N/A   Scattered Clouds
6:15 AM 62.8 °F - 61.2 °F 94% 30.15 in 4.0 mi ESE 4.6 mph - N/A   Clear
6:35 AM 63.5 °F - 61.7 °F 94% 30.15 in 4.0 mi East 5.8 mph - N/A   Clear
6:50 AM 64.4 °F - 62.6 °F 94% 30.15 in 7.0 mi Calm Calm - N/A   Scattered Clouds
6:55 AM 63.9 °F - 62.2 °F 94% 30.15 in 4.0 mi ESE 3.5 mph - N/A   Clear
7:55 AM 69.8 °F - 66.2 °F 88% 30.16 in 10.0 mi SSE 5.8 mph - N/A   Clear
8:45 AM 73.4 °F - 66.2 °F 78% 30.17 in 10.0 mi SSE 5.8 mph - N/A   Clear
9:15 AM 75.2 °F - 66.2 °F 73% 30.17 in 10.0 mi SSE 8.1 mph - N/A   Mostly Cloudy
9:58 AM 77.0 °F - 64.4 °F 65% 30.17 in 10.0 mi South 11.5 mph - N/A   Scattered Clouds
10:50 AM 78.8 °F - 64.4 °F 61% 30.18 in 10.0 mi SSE 11.5 mph 18.4 mph N/A   Scattered Clouds
11:58 AM 80.6 °F 81.5 °F 60.8 °F 51% 30.16 in 10.0 mi South 13.8 mph 20.7 mph N/A   Scattered Clouds
12:50 PM 78.8 °F - 62.6 °F 57% 30.15 in 10.0 mi SSE 11.5 mph 19.6 mph N/A   Scattered Clouds
1:45 PM 77.0 °F - 62.6 °F 61% 30.12 in 10.0 mi SSE 11.5 mph - N/A   Scattered Clouds
2:50 PM 75.2 °F - 64.4 °F 69% 30.08 in 10.0 mi SSE 10.4 mph - N/A   Scattered Clouds
3:49 PM 75.2 °F - 62.6 °F 65% 30.06 in 10.0 mi SSE 12.7 mph - N/A   Overcast
4:50 PM 75.2 °F - 64.4 °F 69% 30.04 in 10.0 mi SE 9.2 mph - N/A   Overcast
5:49 PM 75.2 °F - 64.4 °F 69% 30.03 in 10.0 mi SSE 10.4 mph - N/A   Overcast
6:54 PM 75.2 °F - 64.4 °F 69% 30.01 in 10.0 mi SSE 11.5 mph - N/A   Mostly Cloudy
7:50 PM 71.6 °F - 64.4 °F 78% 30.02 in 10.0 mi SSE 9.2 mph - N/A   Scattered Clouds
8:51 PM 69.8 °F - 64.4 °F 83% 30.02 in 10.0 mi SSE 5.8 mph - N/A   Scattered Clouds
9:48 PM 68.0 °F - 64.4 °F 88% 30.01 in 10.0 mi SSE 8.1 mph - N/A   Clear
11:15 PM 67.5 °F - 64.6 °F 90% 30.01 in 10.0 mi SSE 6.9 mph - N/A   Clear
11:35 PM 67.3 °F - 64.6 °F 91% 30.01 in 10.0 mi SSE 5.8 mph - N/A   Clear
11:55 PM 66.7 °F - 64.4 °F 92% 30.00 in 10.0 mi SSE 5.8 mph - N/A   Clear